Current Version              Previous Version:    01  02  03  04  05  06  07  08  09  10  11  12  13  14  15  16  17  18  19  20  21  22  23  24  25  26  27  28  29  30  
   31  32  33  34  35  36  37  38  39  40  41  42  43  44  45  46  47  48  49  50  51  52  53  54  55  56  57  58  59  60  

[Printable]
647
ASUS44 KLUB 011101
RWRTX
WEST TEXAS WEATHER ROUNDUP
NATIONAL WEATHER SERVICE LUBBOCK TX
600 AM CDT MON SEP 01 2014

NOTE: "FAIR" INDICATES FEW OR NO CLOUDS BELOW 12,000 FEET WITH NO
SIGNIFICANT WEATHER AND/OR OBSTRUCTIONS TO VISIBILITY.

TXZ004-006>008-010-012-014-016-OKZ002-011200-
TEXAS PANHANDLE/OKLAHOMA PANHANDLE

CITY           SKY/WX    TMP DP  RH WIND       PRES   REMARKS
AMARILLO       CLEAR     74  57  55 W10       29.90R
BORGER         CLEAR     68  57  68 NW3       29.88R
CANADIAN       CLEAR     72  63  73 NW5       29.81R
DALHART        CLEAR     63  55  75 N8        29.96R
DUMAS          CLEAR     59  56  88 N6        29.91S
GUYMON         CLEAR     63  57  81 NW14      29.90R
HEREFORD       CLEAR     73  60  64 S10       29.91S
PAMPA          CLEAR     68  55  61 NW7       29.88R
PERRYTON       CLEAR     65  62  89 NW7       29.84S
$$

TXZ026-029-035-045-048-011200-
SOUTHERN PANHANDLE/SOUTH PLAINS/ROLLING PLAINS

CITY           SKY/WX    TMP DP  RH WIND       PRES   REMARKS
CHILDRESS      CLEAR     80  64  58 S12       29.80S
SEMINOLE       CLEAR     75  61  61 S8        29.93S
LUBBOCK        PTCLDY    76  61  59 S16       29.89F
PLAINVIEW      CLEAR     73  62  70 SW9       29.89S
SNYDER         CLEAR     76  66  71 S14       29.90S
$$

TXZ052-054-060>062-072-078-127-140-154-169-011200-
PERMIAN BASIN/CONCHO VALLEY/BIG COUNTRY/EDWARDS PLATEAU

CITY           SKY/WX    TMP DP  RH WIND       PRES   REMARKS
ABILENE        CLEAR     78  69  73 S20G29    29.87S
BIG SPRING     CLEAR     79  64  60 S18       29.92S
BRADY          CLEAR     73  68  83 S10       29.93S
BROWNWOOD      CLEAR     75  68  78 S10       29.92R
JUNCTION       PTCLDY    75  69  81 S7        29.94S
MIDLAND        CLEAR     79  63  57 S13       29.91R
ODESSA         CLEAR     79  62  56 S15       29.92R
SAN ANGELO     CLEAR     77  69  76 S16G24    29.90R
SONORA         CLOUDY    77  70  78 S13       29.98S
SWEETWATER     CLEAR     77  68  73 S20G26    29.91S
WINK           CLEAR     79  63  57 SE12      29.87R
$$

TXZ055-058-074-075-080-082-011200-
FAR WEST/SOUTHWEST MOUNTAINS/TRANS PECOS

CITY           SKY/WX    TMP DP  RH WIND       PRES   REMARKS
ALPINE         CLEAR     72  57  60 SW6       30.09S
DRYDEN           N/A     80  63  55 E3        29.90R
EL PASO        CLEAR     77  41  27 SW8       29.96S
FORT STOCKTON  CLEAR     76  62  62 S15       29.92R
GUADALUPE PASS CLEAR     73  45  36 SW16      30.09S
MARFA          CLEAR     61  55  82 N7        30.09S
PRESIDIO       FAIR      81  61  51 N10       29.91S
$$

TXZ014-016-019-021>030-083-011200
TEXAS TECH WEST TEXAS MESONET/TEXAS PANHANDLE/NORTHERN SOUTH PLAINS

CITY           SKY/WX    TMP DP  RH WIND       PRES   REMARKS
ABERNATHY 5ENE   N/A     74  61  63 S12       29.91S
AMARILLO 9NNE    N/A     72  57  60 W3        29.89R
AMARILLO 7SSE    N/A     74  58  57 SW13      29.89R
AMHERST 1NE      N/A     73  60  64 S12       29.91S
BOOTLEG 11WNW    N/A     66  53  63 SW7       29.96R
CANADIAN 6E      N/A     73  62  69 S5        29.79S
CAPROCK CYN SP   N/A     78  62  57 SW23      29.82S
CHILDRESS 2NNE   N/A     78  64  61 S10       29.79S
CLARENDON 2WSW   N/A     78  60  54 S15       29.84S
CLAUDE 12SW      N/A     77  60  54 SW24      29.87F
DIMMITT 2NE      N/A     71  58  62 S14       29.92S
FLOYDADA 2NNE    N/A     73  62  68 S10       29.90R
FRIONA 2NE       N/A     69  56  62 S12       29.93S
GOODLETT 3W      N/A     79  64  59 S9        29.79S
HART 3N          N/A     69  59  70 SW8       29.92R
HEREFORD 2NW     N/A     70  56  60 S10       29.91S
MCLEAN 1E        N/A     76  60  57 SW13      29.82R
MEMPHIS 1NE      N/A     76  64  66 S6        29.80S
MULESHOE 2SSW    N/A     71  58  62 S12       29.92R
OLTON 6S         N/A     71  59  64 S12       29.90S
PALO DURO SP     N/A     75  58  54 SW14      29.88S
PAMPA 2E         N/A     75  58  55 W10       29.86S
PLAINVIEW 1S     N/A     73  62  68 S9        29.89S
SILVERTON 7ESE   N/A     74  62  64 SW18      29.87S
TULIA 2ENE       N/A     73  60  65 SW13      29.89S
TURKEY 2WSW      N/A     80  63  56 SW18      29.80S
UMBARGER 3NNE    N/A     72  57  59 SW13      29.90S
$$

TXZ033>036-039>041-045>048-011200
TEXAS TECH WEST TEXAS MESONET/SOUTH PLAINS

CITY           SKY/WX    TMP DP  RH WIND       PRES   REMARKS
AIKEN 3WSW       N/A     73  63  70 S10       29.90F
ANDREWS 2NE      N/A     78  60  52 S15G24    29.91S
ANTON 6SSW       N/A     72  60  67 S10       29.90S
BROWNFIELD 2S    N/A     71  60  67 S8        29.92S
DENVR CTY 7WNW   N/A     69  59  71 S8        29.93S
GAIL 2ESE        N/A     77  63  61 S10       29.89R
LAMESA 2SE       N/A     73  62  69 S9        29.91S
LEVELLAND 4S     N/A     72  59  64 S9        29.92S
LUBBOCK 3WNW     N/A     76  60  58 S15       29.90S
MORTON 1ENE      N/A     71  60  68 S12       29.92S
ODONNELL 1N      N/A     73  61  64 S9        29.91S
PLAINS 3N        N/A     71  60  67 S7        29.94S
RALLS 1SE        N/A     76  62  62 S14       29.91R
REESE CENTER     N/A     73  60  65 S12       29.91R
SEAGRAVES 1SW    N/A     71  61  70 S6        29.93R
SEMINOLE 2NNE    N/A     76  60  59 S12       29.92S
SLATON 2NE       N/A     74  61  63 S18       29.89S
SNYDER 3E        N/A     75  65  70 S13       29.88S
SUNDOWN 8SW      N/A     71  60  68 S10       29.93R
TAHOKA 3NNE      N/A     74  61  63 S12       29.90S
WOLFFORTH 6SSW   N/A     72  60  66 S9        29.92R
$$

TXZ031-032-036>038-042>044-011200-
TEXAS TECH WEST TEXAS MESONET/ROLLING PLAINS

CITY           SKY/WX    TMP DP  RH WIND       PRES   REMARKS
ASPERMONT 3NE    N/A     77  66  67 S8        29.84S
FLUVANNA 3WNW    N/A     75  62  64 S14       29.89S
GRAHAM 5SSW      N/A     76  62  60 S8        29.90S
GUTHRIE 10WSW    N/A     77  65  65 S12       29.83S
HASKELL 1NW      N/A     78  66  65 S12       29.83S
JAYTON 1SSE      N/A     79  65  61 S10       29.85S
KNOX CITY 3NW    N/A     78  65  65 S10       29.82S
LK A HENRY 1NW   N/A     78  64  61 S16       29.85S
NORTHFIELD 1S    N/A     80  64  58 S10       29.80S
ODELL 4ENE       N/A     78  66  66 S14       29.81R
PADUCAH 10SW     N/A     78  64  62 S17       29.80S
POST 1NE         N/A     78  61  54 S15       29.86S
RRING SPRGS 3N   N/A     78  64  62 S15       29.85S
SEYMOUR 3NW      N/A     79  68  69 S13       29.81S
SPUR 1W          N/A     75  63  66 S6        29.85S
WEINERT 2NNE     N/A     78  68  71 S15       29.83S
WHITE RVR 6NE    N/A     77  62  61 S12       29.87S
$$

TXZ052-054-060>062-072-078-127-140-154-169-011200-
TEXAS TECH WEST TEXAS MESONET/PERMIAN BASIN/
CONCHO VALLEY/BIG COUNTRY/EDWARDS PLATEAU

CITY           SKY/WX    TMP DP  RH WIND       PRES   REMARKS
JUNCTION 1SSW    N/A     75  69  81 S7        29.94S
MERTZON 3NNE     N/A     76  69  80 S15       29.92S
SAN ANGELO 7NW   N/A     76  67  74 S12       29.91S
STRLNG CT 4WSW   N/A     76  69  78 S14       29.91S
ST LAWRNCE 5SW   N/A     75  64  68 S15       29.92R
SWEETWATR 11SW   N/A     75  68  79 S14       29.92R
WALL 1E          N/A     76  67  74 S12       29.91R
$$

TXZ055-058-074-075-080-082-011200-
TEXAS TECH WEST TEXAS MESONET/FAR WEST/SOUTHWEST MOUNTAINS/TRANS PECOS

CITY           SKY/WX    TMP DP  RH WIND       PRES   REMARKS
PRSMN GAP BBNP   N/A     80  62  53 S3        29.93S
GUADLPE MTN NP   N/A     78  36  21 W7        30.08S
$$